ORBCOMM-X 1 21576U 91050C 25348.75898618 .00000408 00000+0 13348-3 0 9993 2 21576 98.3228 51.4889 0003732 19.6876 340.4458 14.43437343808169 ORBCOMM FM01 1 23545U 95017A 25348.96399640 .00005486 00000+0 53331-3 0 9999 2 23545 69.9628 342.4645 0003849 337.1999 22.8986 14.93121010639469 ORBCOMM FM02 1 23546U 95017B 25348.76876986 .00008180 00000+0 75984-3 0 9993 2 23546 69.9647 1.5698 0004964 353.5481 6.5611 14.94697139639105 ORBCOMM FM08 1 25112U 97084A 25348.69255144 .00001572 00000+0 47132-3 0 9991 2 25112 45.0116 220.9014 0006628 79.1901 280.9696 14.46601848467501 ORBCOMM FM10 1 25113U 97084B 25348.90904768 .00001092 00000+0 34159-3 0 9991 2 25113 45.0133 222.5759 0005348 46.3593 313.7702 14.46348222642676 ORBCOMM FM11 1 25114U 97084C 25348.73823819 .00001556 00000+0 47191-3 0 9995 2 25114 45.0119 224.3640 0006147 47.0538 313.0828 14.46091035467602 ORBCOMM FM12 1 25115U 97084D 25348.69815391 .00001467 00000+0 44702-3 0 9993 2 25115 45.0123 224.2880 0005278 43.7280 316.3989 14.46113830467392 ORBCOMM FM09 1 25116U 97084E 25348.74751145 .00001210 00000+0 37709-3 0 9991 2 25116 45.0128 225.1806 0006496 33.9868 326.1399 14.45953196467606 ORBCOMM FM05 1 25117U 97084F 25348.92056575 .00001226 00000+0 37577-3 0 9997 2 25117 45.0129 219.8380 0002893 45.2999 314.8088 14.46713623466779 ORBCOMM FM06 1 25118U 97084G 25348.69453553 .00001562 00000+0 46601-3 0 9990 2 25118 45.0118 220.4461 0001818 40.7293 358.4347 14.46876881467666 ORBCOMM FM07 1 25119U 97084H 25348.90652496 .00001258 00000+0 38299-3 0 9998 2 25119 45.0118 220.1766 0003714 42.4554 317.6584 14.46887960467680 ORBCOMM FM03 1 25158U 98007B 25348.91760328 .00001011 00000+0 39598-3 0 9992 2 25158 107.9632 146.9744 0046628 290.9983 68.6173 14.35031165449964 ORBCOMM FM04 1 25159U 98007C 25348.87095029 .00001137 00000+0 43844-3 0 9995 2 25159 107.9624 150.2227 0042473 288.3901 71.2623 14.35277473450141 ORBCOMM FM17 1 25413U 98046A 25348.81549587 .00001215 00000+0 46691-3 0 9998 2 25413 44.9930 124.8708 0001836 62.6034 297.5000 14.35541464429123 ORBCOMM FM18 1 25414U 98046B 25348.46312145 .00001584 00000+0 55236-3 0 9992 2 25414 44.9933 39.0250 0003185 139.6363 220.4722 14.39160433430210 ORBCOMM FM19 1 25415U 98046C 25348.53150789 .00001389 00000+0 49190-3 0 9990 2 25415 44.9944 40.9756 0002001 148.2310 0.8662 14.38979380430175 ORBCOMM FM20 1 25416U 98046D 25348.89441146 .00000968 00000+0 36622-3 0 9998 2 25416 44.9950 45.2191 0001903 224.5600 135.5096 14.37668686430264 ORBCOMM FM16 1 25417U 98046E 25348.94515189 .00001329 00000+0 46731-3 0 9998 2 25417 44.9949 34.0771 0003675 162.2525 197.8453 14.39536394430298 ORBCOMM FM15 1 25418U 98046F 25348.82816382 .00001096 00000+0 39629-3 0 9994 2 25418 44.9971 40.3294 0003523 164.4518 195.6439 14.39166597430263 ORBCOMM FM14 1 25419U 98046G 25348.45075192 .00001530 00000+0 53059-3 0 9996 2 25419 44.9960 39.8099 0002348 174.4256 185.6620 14.39585255430180 ORBCOMM FM13 1 25420U 98046H 25348.51958529 .00001284 00000+0 46517-3 0 9996 2 25420 44.9982 49.2883 0003686 127.4962 232.6221 14.38201728429198 ORBCOMM FM21 1 25475U 98053A 25348.84867886 .00001033 00000+0 38651-3 0 9997 2 25475 45.0069 133.6800 0001258 101.7725 258.3264 14.37798137423244 ORBCOMM FM22 1 25476U 98053B 25348.88664228 .00001178 00000+0 42406-3 0 9990 2 25476 45.0064 126.8162 0002530 76.1699 283.9431 14.38970244423291 ORBCOMM FM23 1 25477U 98053C 25348.82347082 .00001022 00000+0 38125-3 0 9992 2 25477 45.0069 135.6358 0001983 74.6594 285.4474 14.38035844423393 ORBCOMM FM24 1 25478U 98053D 25348.82641524 .00001058 00000+0 38816-3 0 9997 2 25478 45.0056 132.2775 0001803 90.1311 269.9744 14.38659773423454 ORBCOMM FM25 1 25479U 98053E 25348.66261713 .00001443 00000+0 51289-3 0 9995 2 25479 45.0058 131.3533 0004237 85.6288 274.5045 14.38626786423729 ORBCOMM FM26 1 25480U 98053F 25348.79679167 .00001223 00000+0 45060-3 0 9993 2 25480 45.0055 128.5253 0006270 98.7222 261.4337 14.37600025423633 ORBCOMM FM27 1 25481U 98053G 25348.71564185 .00001397 00000+0 49757-3 0 9998 2 25481 45.0030 131.2350 0001195 146.2496 213.8429 14.38662037423667 ORBCOMM FM28 1 25482U 98053H 25348.59408302 .00001263 00000+0 45317-3 0 9993 2 25482 45.0059 69.0883 0004432 150.3906 209.7194 14.38791505424338 ORBCOMM FM30 1 25980U 99065A 25348.90504844 .00001034 00000+0 38715-3 0 9993 2 25980 45.0324 314.0443 0006164 213.9028 146.1427 14.37768505360454 ORBCOMM FM31 1 25981U 99065B 25348.95626599 .00001021 00000+0 38344-3 0 9995 2 25981 45.0237 307.2548 0004568 247.5196 112.5169 14.37695435360016 ORBCOMM FM32 1 25982U 99065C 25348.63538270 .00001204 00000+0 45213-3 0 9995 2 25982 45.0168 326.5594 0006858 232.8302 127.1921 14.36753345360545 ORBCOMM FM33 1 25983U 99065D 25348.93167910 .00001010 00000+0 35879-3 0 9990 2 25983 45.0269 219.3340 0007813 257.1696 102.8281 14.40533773362125 ORBCOMM FM36 1 25984U 99065E 25348.92098582 .00001102 00000+0 40187-3 0 9998 2 25984 45.0390 314.0531 0000883 152.4031 207.6865 14.38717936360443 ORBCOMM FM35 1 25985U 99065F 25348.61660985 .00001286 00000+0 47141-3 0 9997 2 25985 45.0406 321.9990 0004678 246.6669 113.3688 14.37623602360741 ORBCOMM FM34 1 25986U 99065G 25348.93075286 .00001030 00000+0 38730-3 0 9998 2 25986 45.0400 320.9800 0003101 204.8566 155.2133 14.37574092360903 ORBCOMM FM38 1 33060U 08031A 25348.93731443 .00001673 00000+0 23414-3 0 9993 2 33060 48.4376 173.3168 0004407 106.3343 253.8058 14.82272038941552 ORBCOMM FM41 1 33061U 08031B 25348.95401910 .00001487 00000+0 21317-3 0 9992 2 33061 48.4412 181.6573 0003546 89.1504 63.4375 14.81827926941037 ORBCOMM FM29 1 33062U 08031C 25348.92126906 .00001605 00000+0 22723-3 0 9993 2 33062 48.4367 189.3802 0005262 86.8952 52.6144 14.81975033940941 ORBCOMM FM39 1 33063U 08031D 25348.90608820 .00001391 00000+0 20785-3 0 9990 2 33063 48.4385 215.7727 0006221 53.2967 306.8519 14.80415405940561 ORBCOMM FM37 1 33064U 08031E 25348.93532277 .00001386 00000+0 20619-3 0 9996 2 33064 48.4375 203.8729 0004764 75.1570 14.3868 14.80612634940824 ORBCOMM FM40 1 33065U 08031F 25348.90547789 .00001852 00000+0 25126-3 0 9994 2 33065 48.4393 184.8864 0005791 93.2332 43.7927 14.83117597940970 VESSELSAT 1 1 37840U 11058C 25348.59657737 .00000383 00000+0 64501-4 0 9991 2 37840 19.9620 82.1881 0013737 11.7229 348.3494 14.11399161731824 ORBCOMM FM109 1 40086U 14040A 25348.71395797 .00000824 00000+0 21177-3 0 9991 2 40086 47.0028 243.4879 0001129 81.1475 278.9539 14.58548226607413 ORBCOMM FM107 1 40087U 14040B 25348.73314021 .00000811 00000+0 20885-3 0 9996 2 40087 47.0043 244.2854 0001125 0.3557 359.7330 14.58624012607496 ORBCOMM FM106 1 40088U 14040C 25348.65576035 .00001191 00000+0 22733-3 0 9999 2 40088 47.0603 52.1839 0016728 189.3131 170.7453 14.70035816610021 ORBCOMM FM111 1 40089U 14040D 25348.90355425 .00002421 00000+0 28461-3 0 9997 2 40089 47.0000 236.2832 0028861 337.7187 22.2455 14.87736426617126 ORBCOMM FM104 1 40090U 14040E 25348.85234967 .00000643 00000+0 17908-3 0 9998 2 40090 47.0057 279.5178 0016925 309.8844 50.0553 14.57010892606968 ORBCOMM FM103 1 40091U 14040F 25348.71557165 .00000755 00000+0 19721-3 0 9991 2 40091 47.0049 245.0287 0001695 9.6720 350.4198 14.58538052590457 ORBCOMM FM114 1 41179U 15081A 25348.86932602 .00000643 00000+0 17321-3 0 9994 2 41179 47.0032 153.2569 0001787 78.2933 281.8154 14.58558441530840 ORBCOMM FM119 1 41180U 15081B 25348.65994380 .00000817 00000+0 21062-3 0 9994 2 41180 47.0012 63.6046 0001218 205.0178 155.0649 14.58505234532063 ORBCOMM FM105 1 41181U 15081C 25348.65148402 .00000388 00000+0 15370-3 0 9999 2 41181 47.0014 86.2235 0001017 33.6877 326.4068 14.45406394526857 ORBCOMM FM110 1 41182U 15081D 25348.85926072 .00000916 00000+0 23135-3 0 9994 2 41182 47.0004 152.8059 0002725 293.7793 66.2806 14.58583897530711 ORBCOMM FM118 1 41183U 15081E 25348.82523885 .00000840 00000+0 21524-3 0 9993 2 41183 47.0025 153.2645 0003204 258.8102 101.2424 14.58577897530810 ORBCOMM FM112 1 41184U 15081F 25348.89643539 .00000763 00000+0 19873-3 0 9998 2 41184 46.9999 61.4636 0000620 91.3144 268.7813 14.58581132532049 ORBCOMM FM113 1 41185U 15081G 25348.59969679 .00001080 00000+0 26613-3 0 9995 2 41185 47.0015 63.2218 0000529 127.5714 232.5220 14.58576819531989 ORBCOMM FM115 1 41186U 15081H 25348.79260601 .00000924 00000+0 21288-3 0 9996 2 41186 46.9985 260.3526 0000793 215.8083 144.2751 14.62925569534211 ORBCOMM FM108 1 41187U 15081J 25348.97327752 .00000994 00000+0 24812-3 0 9991 2 41187 47.0061 332.9642 0001834 45.6884 314.4152 14.58559370533188 ORBCOMM FM117 1 41188U 15081K 25348.93908059 .00000976 00000+0 24405-3 0 9991 2 41188 47.0024 331.8238 0002113 57.5089 302.6001 14.58584974533222 ORBCOMM FM116 1 41189U 15081L 25348.64540287 .00001193 00000+0 29031-3 0 9997 2 41189 47.0030 62.9822 0002577 271.5370 88.5220 14.58577914531997